GFSFLT1_prec_precacc12_192.txt.gz
Total_Precipitation_Accumulation
0.00 0.00 0.00 0.00 0.00 0.00 0.00 0.00 0.00 0.00 0.00 0.00 0.00 0.00 0.00 0.00 0.00 0.00 0.00 0.00 0.00 0.00 0.00 0.00 0.00 0.00 0.00 0.00 0.00 0.00 0.00 0.00
0.00 0.00 0.00 0.00 0.00 0.00 0.01 0.00 0.00 0.00 0.00 0.00 0.00 0.00 0.00 0.00 0.00 0.00 0.00 0.00 0.00 0.00 0.00 0.00 0.00 0.00 0.00 0.00 0.00 0.00 0.00 0.00
0.00 0.00 0.00 0.00 0.00 0.00 0.01 0.00 0.00 0.00 0.00 0.00 0.00 0.00 0.00 0.00 0.00 0.00 0.00 0.00 0.00 0.00 0.00 0.00 0.00 0.00 0.00 0.00 0.00 0.00 0.00 0.00
0.00 0.00 0.00 0.00 0.00 0.00 0.02 0.02 0.01 0.00 0.00 0.00 0.00 0.00 0.00 0.00 0.00 0.00 0.00 0.00 0.00 0.00 0.00 0.00 0.00 0.00 0.00 0.00 0.00 0.00 0.00 0.00
0.00 0.00 0.00 0.00 0.00 0.00 0.02 0.02 0.01 0.00 0.00 0.00 0.00 0.00 0.00 0.00 0.00 0.00 0.00 0.00 0.00 0.00 0.00 0.00 0.00 0.00 0.00 0.00 0.00 0.00 0.00 0.00
0.00 0.00 0.00 0.00 0.00 0.01 0.03 0.03 0.02 0.01 0.01 0.00 0.00 0.00 0.00 0.00 0.00 0.00 0.00 0.00 0.00 0.00 0.00 0.00 0.00 0.00 0.00 0.00 0.00 0.00 0.00 0.00
0.00 0.00 0.00 0.00 0.00 0.04 0.05 0.04 0.04 0.02 0.02 0.01 0.00 0.00 0.00 0.00 0.00 0.00 0.00 0.00 0.00 0.00 0.00 0.00 0.00 0.00 0.00 0.00 0.00 0.00 0.00 0.00
0.00 0.00 0.00 0.00 0.00 0.01 0.03 0.03 0.03 0.03 0.03 0.02 0.01 0.01 0.00 0.00 0.00 0.00 0.00 0.00 0.00 0.00 0.00 0.00 0.00 0.00 0.00 0.00 0.00 0.00 0.00 0.00
0.00 0.00 0.00 0.00 0.00 0.00 0.00 0.00 0.01 0.01 0.01 0.02 0.01 0.02 0.01 0.00 0.00 0.00 0.00 0.00 0.00 0.00 0.00 0.00 0.00 0.00 0.00 0.00 0.00 0.00 0.00 0.00
0.00 0.00 0.00 0.00 0.00 0.00 0.00 0.00 0.00 0.00 0.00 0.02 0.03 0.04 0.03 0.02 0.01 0.01 0.00 0.00 0.00 0.00 0.01 0.01 0.00 0.00 0.00 0.00 0.00 0.00 0.00 0.00
0.00 0.00 0.00 0.00 0.00 0.00 0.00 0.00 0.00 0.00 0.00 0.01 0.02 0.02 0.02 0.02 0.01 0.01 0.01 0.01 0.02 0.03 0.04 0.05 0.04 0.01 0.00 0.00 0.00 0.00 0.00 0.00
0.00 0.00 0.00 0.00 0.00 0.00 0.00 0.00 0.00 0.00 0.00 0.01 0.02 0.03 0.03 0.02 0.01 0.01 0.01 0.01 0.01 0.02 0.03 0.02 0.01 0.00 0.00 0.00 0.00 0.00 0.00 0.00
0.00 0.00 0.00 0.00 0.00 0.00 0.00 0.01 0.02 0.02 0.02 0.03 0.05 0.05 0.05 0.06 0.07 0.05 0.02 0.02 0.03 0.03 0.03 0.02 0.01 0.01 0.01 0.00 0.00 0.00 0.00 0.00
0.00 0.00 0.00 0.00 0.00 0.01 0.06 0.11 0.12 0.09 0.08 0.08 0.10 0.09 0.07 0.08 0.08 0.08 0.09 0.10 0.10 0.09 0.07 0.06 0.04 0.03 0.02 0.01 0.01 0.00 0.00 0.00
0.00 0.01 0.06 0.06 0.10 0.17 0.27 0.29 0.31 0.31 0.25 0.20 0.19 0.19 0.19 0.19 0.19 0.19 0.17 0.14 0.09 0.05 0.03 0.01 0.01 0.01 0.00 0.00 0.00 0.00 0.00 0.00
0.00 0.00 0.00 0.00 0.02 0.09 0.14 0.23 0.32 0.27 0.20 0.21 0.24 0.24 0.26 0.30 0.28 0.23 0.18 0.12 0.05 0.02 0.01 0.00 0.00 0.01 0.01 0.00 0.00 0.00 0.00 0.00
0.00 0.00 0.01 0.00 0.00 0.00 0.01 0.05 0.13 0.26 0.27 0.22 0.21 0.23 0.25 0.24 0.18 0.14 0.09 0.05 0.02 0.01 0.00 0.00 0.00 0.01 0.01 0.00 0.00 0.00 0.00 0.00
0.02 0.00 0.01 0.02 0.01 0.00 0.00 0.00 0.00 0.02 0.12 0.20 0.23 0.20 0.19 0.15 0.14 0.12 0.07 0.05 0.03 0.01 0.00 0.00 0.01 0.01 0.01 0.00 0.00 0.00 0.00 0.00
0.01 0.00 0.00 0.03 0.04 0.02 0.00 0.00 0.00 0.01 0.05 0.10 0.14 0.14 0.12 0.10 0.09 0.07 0.06 0.05 0.04 0.01 0.00 0.00 0.01 0.00 0.00 0.00 0.00 0.00 0.00 0.00

GFSFLT1_prec_precacc12_198.txt.gz
Total_Precipitation_Accumulation
0.00 0.00 0.00 0.00 0.00 0.00 0.00 0.00 0.00 0.00 0.00 0.00 0.00 0.00 0.00 0.00 0.00 0.00 0.00 0.00 0.00 0.00 0.00 0.00 0.00 0.00 0.00 0.00 0.00 0.00 0.00 0.00
0.00 0.00 0.00 0.00 0.00 0.00 0.00 0.00 0.00 0.00 0.00 0.00 0.00 0.00 0.00 0.00 0.00 0.00 0.00 0.00 0.00 0.00 0.00 0.00 0.00 0.00 0.00 0.00 0.00 0.00 0.00 0.00
0.00 0.00 0.00 0.00 0.00 0.00 0.00 0.00 0.00 0.00 0.00 0.00 0.00 0.00 0.00 0.00 0.00 0.00 0.00 0.00 0.00 0.00 0.00 0.00 0.00 0.00 0.00 0.00 0.00 0.00 0.00 0.00
0.00 0.00 0.00 0.00 0.00 0.00 0.00 0.00 0.00 0.00 0.01 0.00 0.00 0.00 0.00 0.00 0.00 0.00 0.00 0.00 0.00 0.00 0.00 0.00 0.00 0.00 0.00 0.00 0.00 0.00 0.00 0.00
0.00 0.00 0.00 0.00 0.00 0.00 0.00 0.00 0.00 0.01 0.02 0.02 0.01 0.01 0.00 0.00 0.00 0.00 0.00 0.00 0.00 0.00 0.00 0.00 0.00 0.00 0.00 0.00 0.00 0.00 0.00 0.00
0.00 0.00 0.00 0.00 0.00 0.01 0.03 0.04 0.04 0.05 0.06 0.05 0.04 0.03 0.01 0.00 0.00 0.00 0.00 0.00 0.00 0.00 0.00 0.00 0.00 0.00 0.00 0.00 0.00 0.00 0.00 0.00
0.00 0.00 0.00 0.00 0.01 0.05 0.12 0.07 0.07 0.08 0.08 0.07 0.06 0.05 0.03 0.02 0.00 0.00 0.00 0.00 0.00 0.00 0.00 0.00 0.00 0.00 0.00 0.00 0.00 0.00 0.00 0.00
0.00 0.00 0.00 0.00 0.03 0.11 0.17 0.15 0.15 0.15 0.15 0.13 0.11 0.07 0.06 0.04 0.01 0.01 0.00 0.00 0.00 0.00 0.00 0.00 0.00 0.00 0.00 0.00 0.00 0.00 0.00 0.00
0.00 0.00 0.00 0.00 0.01 0.09 0.14 0.17 0.16 0.16 0.15 0.14 0.10 0.05 0.02 0.00 0.00 0.00 0.00 0.00 0.01 0.02 0.01 0.01 0.00 0.00 0.00 0.00 0.00 0.00 0.00 0.00
0.00 0.00 0.00 0.00 0.00 0.02 0.08 0.15 0.13 0.09 0.08 0.10 0.17 0.17 0.06 0.02 0.01 0.01 0.00 0.01 0.02 0.02 0.02 0.01 0.00 0.00 0.00 0.00 0.00 0.01 0.00 0.00
0.00 0.00 0.00 0.00 0.00 0.00 0.00 0.04 0.15 0.18 0.21 0.15 0.15 0.15 0.08 0.03 0.01 0.01 0.02 0.04 0.06 0.07 0.10 0.11 0.12 0.11 0.09 0.09 0.07 0.06 0.04 0.03
0.10 0.04 0.01 0.00 0.00 0.00 0.00 0.00 0.00 0.03 0.08 0.16 0.22 0.30 0.24 0.13 0.05 0.02 0.02 0.04 0.05 0.11 0.16 0.20 0.24 0.26 0.25 0.22 0.20 0.17 0.14 0.11
0.16 0.15 0.08 0.01 0.01 0.00 0.00 0.00 0.00 0.00 0.01 0.05 0.11 0.17 0.19 0.11 0.07 0.06 0.04 0.06 0.07 0.10 0.10 0.09 0.07 0.08 0.10 0.11 0.13 0.12 0.10 0.08
0.04 0.10 0.08 0.02 0.01 0.00 0.00 0.00 0.01 0.01 0.01 0.01 0.03 0.11 0.18 0.24 0.23 0.16 0.14 0.14 0.17 0.20 0.19 0.20 0.19 0.16 0.16 0.13 0.09 0.06 0.03 0.02
0.00 0.03 0.02 0.00 0.00 0.00 0.00 0.00 0.00 0.00 0.00 0.00 0.01 0.05 0.09 0.16 0.22 0.24 0.29 0.29 0.25 0.19 0.18 0.16 0.14 0.10 0.07 0.04 0.02 0.02 0.01 0.00
0.00 0.01 0.05 0.01 0.00 0.00 0.00 0.00 0.00 0.01 0.01 0.03 0.05 0.09 0.16 0.24 0.30 0.32 0.35 0.33 0.28 0.22 0.20 0.16 0.11 0.07 0.03 0.01 0.00 0.00 0.00 0.00
0.00 0.01 0.03 0.03 0.03 0.03 0.02 0.01 0.00 0.02 0.07 0.08 0.09 0.14 0.20 0.22 0.23 0.24 0.23 0.19 0.15 0.11 0.07 0.05 0.03 0.03 0.03 0.03 0.01 0.01 0.01 0.01
0.03 0.05 0.09 0.19 0.10 0.09 0.09 0.02 0.00 0.01 0.05 0.11 0.14 0.15 0.17 0.16 0.16 0.16 0.14 0.13 0.11 0.09 0.06 0.02 0.05 0.08 0.06 0.05 0.01 0.01 0.01 0.01
0.08 0.06 0.05 0.10 0.10 0.05 0.04 0.01 0.00 0.00 0.04 0.08 0.12 0.12 0.11 0.12 0.12 0.10 0.10 0.11 0.11 0.10 0.05 0.05 0.12 0.06 0.02 0.01 0.01 0.01 0.01 0.01

GFSFLT1_prec_precacc12_204.txt.gz
Total_Precipitation_Accumulation
0.00 0.00 0.00 0.00 0.00 0.00 0.00 0.00 0.00 0.00 0.00 0.00 0.00 0.00 0.00 0.00 0.00 0.00 0.00 0.00 0.00 0.00 0.00 0.00 0.00 0.00 0.00 0.00 0.00 0.00 0.00 0.00
0.00 0.00 0.00 0.00 0.00 0.00 0.00 0.00 0.00 0.00 0.00 0.00 0.00 0.00 0.00 0.00 0.00 0.00 0.00 0.00 0.00 0.00 0.00 0.00 0.00 0.00 0.00 0.00 0.00 0.00 0.00 0.00
0.00 0.00 0.00 0.00 0.00 0.00 0.00 0.00 0.00 0.00 0.00 0.00 0.00 0.00 0.00 0.00 0.00 0.00 0.00 0.00 0.00 0.00 0.00 0.00 0.00 0.00 0.00 0.00 0.00 0.00 0.00 0.00
0.00 0.00 0.00 0.00 0.00 0.00 0.00 0.00 0.00 0.00 0.01 0.00 0.00 0.00 0.00 0.00 0.00 0.00 0.00 0.01 0.00 0.00 0.00 0.00 0.00 0.00 0.00 0.00 0.00 0.00 0.00 0.00
0.00 0.00 0.00 0.00 0.00 0.00 0.00 0.00 0.00 0.01 0.02 0.03 0.02 0.01 0.01 0.01 0.02 0.05 0.05 0.03 0.01 0.00 0.00 0.00 0.00 0.00 0.00 0.00 0.00 0.00 0.00 0.00
0.00 0.00 0.00 0.00 0.00 0.01 0.03 0.03 0.03 0.05 0.06 0.06 0.06 0.05 0.05 0.05 0.09 0.11 0.08 0.05 0.02 0.01 0.00 0.00 0.00 0.00 0.00 0.00 0.00 0.00 0.00 0.00
0.00 0.00 0.00 0.00 0.01 0.05 0.12 0.07 0.07 0.08 0.10 0.09 0.10 0.08 0.07 0.08 0.07 0.08 0.08 0.06 0.03 0.02 0.01 0.01 0.00 0.00 0.00 0.00 0.00 0.00 0.00 0.00
0.00 0.00 0.00 0.00 0.03 0.10 0.16 0.16 0.16 0.16 0.16 0.16 0.15 0.12 0.13 0.12 0.09 0.08 0.07 0.06 0.06 0.05 0.03 0.02 0.01 0.01 0.01 0.01 0.00 0.00 0.00 0.00
0.00 0.00 0.00 0.00 0.01 0.09 0.14 0.19 0.18 0.18 0.18 0.17 0.16 0.11 0.08 0.08 0.09 0.10 0.09 0.08 0.10 0.11 0.13 0.16 0.17 0.19 0.18 0.16 0.13 0.03 0.00 0.00
0.00 0.00 0.00 0.00 0.00 0.02 0.08 0.15 0.16 0.16 0.14 0.15 0.21 0.26 0.27 0.30 0.38 0.46 0.55 0.59 0.59 0.58 0.58 0.53 0.47 0.36 0.19 0.12 0.10 0.07 0.04 0.02
0.00 0.00 0.00 0.00 0.00 0.00 0.00 0.04 0.15 0.22 0.34 0.40 0.43 0.37 0.26 0.22 0.30 0.37 0.39 0.39 0.46 0.45 0.41 0.36 0.29 0.27 0.22 0.18 0.16 0.11 0.09 0.09
0.10 0.04 0.01 0.00 0.00 0.00 0.00 0.00 0.00 0.03 0.08 0.19 0.39 0.61 0.59 0.43 0.26 0.19 0.20 0.22 0.22 0.26 0.32 0.40 0.44 0.41 0.39 0.40 0.41 0.38 0.36 0.34
0.16 0.15 0.08 0.01 0.01 0.00 0.00 0.00 0.00 0.00 0.01 0.04 0.09 0.17 0.27 0.30 0.29 0.28 0.22 0.20 0.23 0.28 0.29 0.30 0.27 0.30 0.33 0.34 0.34 0.30 0.25 0.19
0.04 0.10 0.08 0.02 0.01 0.00 0.00 0.00 0.01 0.01 0.01 0.01 0.02 0.09 0.19 0.29 0.33 0.30 0.25 0.22 0.22 0.26 0.32 0.39 0.42 0.47 0.54 0.52 0.43 0.30 0.17 0.11
0.00 0.03 0.02 0.00 0.00 0.00 0.00 0.00 0.00 0.00 0.01 0.01 0.01 0.02 0.05 0.11 0.20 0.30 0.45 0.54 0.59 0.58 0.54 0.48 0.47 0.51 0.47 0.36 0.24 0.14 0.09 0.06
0.00 0.01 0.05 0.01 0.00 0.00 0.02 0.00 0.01 0.00 0.00 0.00 0.00 0.01 0.03 0.06 0.09 0.16 0.30 0.47 0.58 0.64 0.64 0.63 0.54 0.37 0.23 0.12 0.06 0.03 0.02 0.02
0.00 0.01 0.02 0.03 0.03 0.03 0.03 0.04 0.04 0.04 0.02 0.01 0.00 0.00 0.01 0.04 0.07 0.14 0.19 0.22 0.26 0.33 0.33 0.29 0.24 0.15 0.11 0.08 0.03 0.02 0.02 0.01
0.02 0.04 0.08 0.17 0.09 0.10 0.12 0.08 0.07 0.05 0.02 0.00 0.01 0.01 0.01 0.02 0.03 0.08 0.11 0.13 0.15 0.16 0.14 0.10 0.11 0.13 0.10 0.06 0.02 0.01 0.01 0.01
0.06 0.06 0.05 0.11 0.12 0.09 0.11 0.11 0.06 0.03 0.01 0.00 0.00 0.00 0.01 0.03 0.04 0.05 0.07 0.10 0.13 0.15 0.11 0.11 0.18 0.10 0.03 0.02 0.01 0.01 0.01 0.01

GFSFLT1_prec_precacc12_207.txt.gz
Total_Precipitation_Accumulation
0.00 0.00 0.00 0.00 0.00 0.00 0.00 0.00 0.00 0.00 0.00 0.00 0.00 0.00 0.00 0.00 0.00 0.02 0.02 0.00 0.01 0.01 0.00 0.00 0.00 0.00 0.00 0.00 0.00 0.00 0.00 0.00
0.00 0.00 0.00 0.00 0.00 0.00 0.00 0.00 0.00 0.00 0.00 0.01 0.01 0.00 0.00 0.00 0.00 0.01 0.03 0.01 0.01 0.01 0.01 0.00 0.00 0.00 0.00 0.00 0.00 0.00 0.00 0.00
0.00 0.00 0.00 0.00 0.00 0.00 0.00 0.00 0.00 0.00 0.00 0.00 0.00 0.00 0.00 0.00 0.00 0.00 0.01 0.02 0.03 0.02 0.01 0.00 0.00 0.00 0.00 0.00 0.00 0.00 0.00 0.00
0.00 0.00 0.00 0.00 0.00 0.00 0.00 0.00 0.00 0.00 0.01 0.01 0.02 0.02 0.01 0.01 0.00 0.00 0.01 0.08 0.09 0.04 0.02 0.01 0.00 0.00 0.00 0.00 0.00 0.00 0.00 0.00
0.00 0.00 0.00 0.00 0.00 0.00 0.00 0.00 0.00 0.00 0.02 0.04 0.03 0.03 0.02 0.01 0.03 0.06 0.08 0.12 0.11 0.07 0.03 0.02 0.01 0.00 0.00 0.00 0.00 0.00 0.00 0.00
0.00 0.00 0.00 0.00 0.00 0.00 0.00 0.00 0.00 0.02 0.04 0.06 0.07 0.06 0.05 0.05 0.10 0.12 0.10 0.09 0.08 0.05 0.03 0.02 0.01 0.00 0.00 0.00 0.00 0.00 0.00 0.00
0.00 0.00 0.00 0.00 0.00 0.01 0.02 0.02 0.03 0.04 0.06 0.07 0.10 0.09 0.07 0.08 0.07 0.08 0.08 0.07 0.05 0.04 0.05 0.04 0.03 0.02 0.01 0.00 0.00 0.00 0.00 0.00
0.00 0.00 0.00 0.00 0.02 0.06 0.09 0.10 0.11 0.12 0.12 0.12 0.13 0.12 0.13 0.12 0.09 0.08 0.07 0.07 0.06 0.06 0.05 0.05 0.04 0.03 0.03 0.03 0.02 0.01 0.00 0.00
0.00 0.00 0.00 0.00 0.01 0.05 0.09 0.15 0.16 0.17 0.17 0.16 0.15 0.11 0.08 0.08 0.09 0.10 0.09 0.08 0.09 0.11 0.14 0.17 0.19 0.22 0.23 0.24 0.24 0.23 0.15 0.09
0.00 0.00 0.00 0.00 0.00 0.01 0.06 0.11 0.15 0.16 0.14 0.13 0.17 0.24 0.27 0.30 0.38 0.46 0.55 0.58 0.58 0.57 0.58 0.56 0.54 0.48 0.42 0.38 0.33 0.30 0.27 0.21
0.00 0.00 0.00 0.00 0.00 0.00 0.00 0.03 0.13 0.22 0.33 0.37 0.37 0.30 0.23 0.22 0.30 0.37 0.37 0.37 0.43 0.43 0.40 0.35 0.29 0.26 0.24 0.23 0.21 0.17 0.16 0.16
0.00 0.01 0.01 0.00 0.00 0.00 0.00 0.00 0.00 0.03 0.08 0.18 0.37 0.55 0.51 0.38 0.25 0.19 0.19 0.21 0.20 0.23 0.28 0.32 0.34 0.30 0.33 0.38 0.44 0.46 0.47 0.47
0.00 0.03 0.06 0.01 0.01 0.00 0.00 0.00 0.00 0.00 0.01 0.02 0.07 0.15 0.24 0.27 0.27 0.26 0.20 0.19 0.23 0.31 0.33 0.35 0.29 0.31 0.35 0.37 0.38 0.39 0.38 0.38
0.00 0.00 0.04 0.02 0.01 0.00 0.00 0.00 0.01 0.01 0.01 0.01 0.01 0.07 0.15 0.23 0.26 0.23 0.20 0.20 0.24 0.30 0.34 0.39 0.44 0.52 0.62 0.61 0.53 0.43 0.33 0.27
0.00 0.00 0.00 0.00 0.00 0.00 0.00 0.00 0.00 0.00 0.01 0.01 0.01 0.01 0.03 0.07 0.15 0.24 0.37 0.50 0.59 0.62 0.66 0.64 0.63 0.62 0.55 0.49 0.42 0.31 0.21 0.18
0.00 0.00 0.00 0.00 0.00 0.00 0.02 0.00 0.01 0.00 0.00 0.00 0.00 0.01 0.01 0.02 0.04 0.09 0.21 0.42 0.57 0.73 0.78 0.81 0.79 0.68 0.56 0.44 0.31 0.25 0.19 0.15
0.00 0.00 0.00 0.00 0.01 0.02 0.03 0.04 0.04 0.04 0.02 0.01 0.01 0.00 0.00 0.01 0.03 0.07 0.12 0.16 0.22 0.37 0.59 0.63 0.60 0.52 0.47 0.43 0.33 0.22 0.18 0.15
0.00 0.00 0.01 0.03 0.04 0.10 0.12 0.08 0.07 0.05 0.03 0.00 0.01 0.01 0.01 0.01 0.02 0.06 0.08 0.13 0.18 0.18 0.24 0.29 0.36 0.38 0.37 0.32 0.26 0.19 0.15 0.12
0.03 0.03 0.04 0.06 0.07 0.08 0.11 0.11 0.06 0.03 0.01 0.00 0.00 0.00 0.00 0.00 0.01 0.03 0.05 0.09 0.15 0.20 0.21 0.22 0.27 0.21 0.15 0.14 0.12 0.09 0.08 0.05